| time (UTC) | temp F | wind direction | speed MPH | gust MPH | rain 1hr in | rain 24hr in | rain mn in | humidity % | barometer mb |
| 20260502130635 | 68 | 217 | 0.0 | 0.0 | 0.00 | 0.00 | 0.00 | 33 | 1012.4 |
| 20260502130136 | 67 | 217 | 0.0 | 0.0 | 0.00 | 0.00 | 0.00 | 34 | 1012.3 |
| 20260502123723 | 65 | 217 | 0.0 | 0.0 | 0.00 | 0.00 | 0.00 | 39 | 1011.8 |
| 20260502122856 | 65 | 217 | 0.0 | 0.0 | 0.00 | 0.00 | 0.00 | 44 | 1011.7 |
| 20260502122126 | 65 | 217 | 0.0 | 0.0 | 0.00 | 0.00 | 0.00 | 44 | 1011.6 |
| 20260502121625 | 65 | 217 | 0.0 | 0.0 | 0.00 | 0.00 | 0.00 | 42 | 1011.6 |
| 20260502121123 | 66 | 217 | 0.0 | 0.0 | 0.00 | 0.00 | 0.00 | 42 | 1011.6 |
| 20260502120626 | 66 | 217 | 0.0 | 0.0 | 0.00 | 0.00 | 0.00 | 42 | 1011.6 |
| 20260502120344 | 66 | 217 | 0.0 | 0.0 | 0.00 | 0.00 | 0.00 | 41 | 1011.6 |
| 20260502115623 | 66 | 217 | 0.0 | 0.0 | 0.00 | 0.00 | 0.00 | 40 | 1011.6 |
| 20260502115122 | 67 | 217 | 0.0 | 0.0 | 0.00 | 0.00 | 0.00 | 39 | 1011.6 |
| 20260502114624 | 67 | 217 | 0.0 | 0.0 | 0.00 | 0.00 | 0.00 | 38 | 1011.5 |
| 20260502114123 | 67 | 217 | 0.0 | 0.0 | 0.00 | 0.00 | 0.00 | 40 | 1011.5 |
| 20260502113619 | 67 | 217 | 0.0 | 0.0 | 0.00 | 0.00 | 0.00 | 35 | 1011.5 |
| 20260502113116 | 68 | 217 | 0.0 | 0.0 | 0.00 | 0.00 | 0.00 | 34 | 1011.5 |
| 20260502112615 | 68 | 217 | 0.0 | 0.0 | 0.00 | 0.00 | 0.00 | 33 | 1011.4 |
| 20260502112113 | 69 | 217 | 0.0 | 0.0 | 0.00 | 0.00 | 0.00 | 32 | 1011.4 |
| 20260502111827 | 69 | 217 | 0.0 | 0.0 | 0.00 | 0.00 | 0.00 | 32 | 1011.3 |
| 20260502111110 | 69 | 217 | 0.0 | 0.0 | 0.00 | 0.00 | 0.00 | 32 | 1011.3 |
| 20260502110608 | 70 | 217 | 0.0 | 0.0 | 0.00 | 0.00 | 0.00 | 31 | 1011.3 |
| 20260502110108 | 70 | 217 | 0.0 | 0.0 | 0.00 | 0.00 | 0.00 | 30 | 1011.3 |
| 20260502105831 | 70 | 217 | 0.0 | 0.0 | 0.00 | 0.00 | 0.00 | 30 | 1011.3 |
| 20260502105331 | 70 | 217 | 0.0 | 0.0 | 0.00 | 0.00 | 0.00 | 30 | 1011.4 |
| 20260502104602 | 70 | 217 | 0.0 | 0.0 | 0.00 | 0.00 | 0.00 | 30 | 1011.3 |
| 20260502104100 | 70 | 217 | 0.0 | 0.0 | 0.00 | 0.00 | 0.00 | 30 | 1011.3 |
| 20260502103558 | 71 | 217 | 0.0 | 0.0 | 0.00 | 0.00 | 0.00 | 30 | 1011.3 |
| 20260502103056 | 71 | 217 | 0.0 | 0.0 | 0.00 | 0.00 | 0.00 | 31 | 1011.1 |
| 20260502102817 | 71 | 217 | 0.0 | 0.0 | 0.00 | 0.00 | 0.00 | 30 | 1011.1 |
| 20260502102547 | 71 | 217 | 0.0 | 0.0 | 0.00 | 0.00 | 0.00 | 29 | 1011.1 |
| 20260502101819 | 72 | 217 | 0.0 | 0.0 | 0.00 | 0.00 | 0.00 | 30 | 1011.1 |
| 20260502101057 | 72 | 217 | 0.0 | 0.0 | 0.00 | 0.00 | 0.00 | 29 | 1011.1 |
| 20260502100555 | 72 | 217 | 0.0 | 0.0 | 0.00 | 0.00 | 0.00 | 28 | 1011.1 |
| 20260502091051 | 74 | 217 | 0.0 | 0.0 | 0.00 | 0.00 | 0.00 | 25 | 1010.8 |
| 20260502090550 | 74 | 217 | 0.0 | 0.0 | 0.00 | 0.00 | 0.00 | 25 | 1010.7 |
| 20260502071047 | 72 | 203 | 0.0 | 0.0 | 0.00 | 0.00 | 0.00 | 33 | 1010.2 |
| 20260502070546 | 72 | 202 | 0.0 | 0.0 | 0.00 | 0.00 | 0.00 | 31 | 1010.1 |
| 20260502070045 | 72 | 202 | 0.0 | 0.0 | 0.00 | 0.00 | 0.00 | 32 | 1010.0 |
| 20260502070030 | 73 | 202 | 0.0 | 0.0 | 0.00 | 0.00 | 0.00 | 32 | 1010.1 |
| 20260502065045 | 73 | 202 | 0.0 | 0.0 | 0.00 | 0.00 | 0.00 | 34 | 1010.1 |
| 20260502064545 | 74 | 202 | 0.0 | 0.0 | 0.00 | 0.00 | 0.00 | 33 | 1010.1 |
| 20260502064045 | 74 | 202 | 0.0 | 0.0 | 0.00 | 0.00 | 0.00 | 26 | 1010.1 |
| 20260502063809 | 74 | 202 | 0.0 | 0.0 | 0.00 | 0.00 | 0.00 | 26 | 1009.9 |
| 20260502063308 | 74 | 202 | 0.0 | 0.0 | 0.00 | 0.00 | 0.00 | 26 | 1009.9 |
| 20260502062543 | 74 | 202 | 0.0 | 0.0 | 0.00 | 0.00 | 0.00 | 26 | 1010.0 |
| 20260502062043 | 74 | 202 | 0.0 | 0.0 | 0.00 | 0.00 | 0.00 | 26 | 1009.8 |
| 20260502061809 | 74 | 202 | 0.0 | 0.0 | 0.00 | 0.00 | 0.00 | 25 | 1009.8 |
| 20260502061044 | 75 | 202 | 0.0 | 0.0 | 0.00 | 0.00 | 0.00 | 25 | 1009.7 |
| 20260502060544 | 75 | 202 | 0.0 | 0.0 | 0.00 | 0.00 | 0.00 | 25 | 1009.7 |
| 20260502060535 | 75 | 202 | 0.0 | 0.0 | 0.00 | 0.00 | 0.00 | 26 | 1009.7 |
| 20260502055544 | 76 | 202 | 0.0 | 0.0 | 0.00 | 0.00 | 0.00 | 26 | 1009.6 |
| 20260502055043 | 76 | 202 | 0.0 | 0.0 | 0.00 | 0.00 | 0.00 | 28 | 1009.6 |
| 20260502054543 | 76 | 202 | 0.0 | 0.0 | 0.00 | 0.00 | 0.00 | 26 | 1009.7 |
| 20260502054045 | 76 | 202 | 0.0 | 0.0 | 0.00 | 0.00 | 0.00 | 25 | 1009.7 |
| 20260502053543 | 76 | 202 | 0.0 | 0.0 | 0.00 | 0.00 | 0.00 | 25 | 1009.7 |
| 20260502053312 | 77 | 202 | 0.0 | 0.0 | 0.00 | 0.00 | 0.00 | 24 | 1009.6 |
| 20260502052903 | 77 | 202 | 0.0 | 0.0 | 0.00 | 0.00 | 0.00 | 24 | 1009.5 |
| 20260502052838 | 77 | 202 | 0.0 | 0.0 | 0.00 | 0.00 | 0.00 | 24 | 1009.5 |
| 20260502051542 | 78 | 202 | 0.0 | 0.0 | 0.00 | 0.00 | 0.00 | 23 | 1009.6 |
| 20260502051304 | 78 | 202 | 0.0 | 0.0 | 0.00 | 0.00 | 0.00 | 24 | 1009.6 |
| 20260502050806 | 78 | 202 | 0.0 | 0.0 | 0.00 | 0.00 | 0.00 | 22 | 1009.5 |
| 20260502050041 | 78 | 202 | 0.0 | 0.0 | 0.00 | 0.00 | 0.00 | 22 | 1009.4 |
| 20260502045542 | 78 | 202 | 0.0 | 0.0 | 0.00 | 0.00 | 0.00 | 22 | 1009.4 |
| 20260502045306 | 79 | 202 | 0.0 | 0.0 | 0.00 | 0.00 | 0.00 | 22 | 1009.3 |
| 20260502044542 | 79 | 202 | 0.0 | 0.0 | 0.00 | 0.00 | 0.00 | 23 | 1009.3 |
| 20260502044316 | 79 | 202 | 0.0 | 0.0 | 0.00 | 0.00 | 0.00 | 23 | 1009.3 |
| 20260502043541 | 79 | 202 | 0.0 | 0.0 | 0.00 | 0.00 | 0.00 | 23 | 1009.2 |
| 20260502043042 | 79 | 202 | 0.0 | 0.0 | 0.00 | 0.00 | 0.00 | 23 | 1009.3 |
| 20260502042538 | 80 | 202 | 0.0 | 0.0 | 0.00 | 0.00 | 0.00 | 23 | 1009.3 |
| 20260502042306 | 80 | 202 | 0.0 | 0.0 | 0.00 | 0.00 | 0.00 | 23 | 1009.2 |
| 20260502041539 | 80 | 202 | 0.0 | 0.0 | 0.00 | 0.00 | 0.00 | 22 | 1009.0 |
| 20260502041040 | 80 | 202 | 0.0 | 0.0 | 0.00 | 0.00 | 0.00 | 22 | 1008.9 |
| 20260502040540 | 81 | 202 | 0.0 | 0.0 | 0.00 | 0.00 | 0.00 | 22 | 1008.9 |
| 20260502040039 | 81 | 202 | 0.0 | 0.0 | 0.00 | 0.00 | 0.00 | 21 | 1008.9 |
| 20260502035540 | 81 | 202 | 0.0 | 0.0 | 0.00 | 0.00 | 0.00 | 21 | 1008.9 |
| 20260502035040 | 82 | 202 | 0.0 | 0.0 | 0.00 | 0.00 | 0.00 | 21 | 1008.8 |
| 20260502034540 | 82 | 202 | 0.0 | 0.0 | 0.00 | 0.00 | 0.00 | 19 | 1008.7 |
| 20260502034040 | 82 | 202 | 0.0 | 0.0 | 0.00 | 0.00 | 0.00 | 19 | 1008.7 |
| 20260502033542 | 83 | 202 | 0.0 | 0.0 | 0.00 | 0.00 | 0.00 | 20 | 1008.6 |
| 20260502033041 | 83 | 202 | 0.0 | 0.0 | 0.00 | 0.00 | 0.00 | 20 | 1008.5 |
| 20260502032537 | 83 | 202 | 0.0 | 0.0 | 0.00 | 0.00 | 0.00 | 19 | 1008.5 |
| 20260502032038 | 83 | 202 | 0.0 | 0.0 | 0.00 | 0.00 | 0.00 | 19 | 1008.5 |
| 20260502031538 | 84 | 202 | 0.0 | 0.0 | 0.00 | 0.00 | 0.00 | 19 | 1008.4 |
| 20260502031038 | 84 | 202 | 0.0 | 0.0 | 0.00 | 0.00 | 0.00 | 19 | 1008.3 |
| 20260502030539 | 84 | 202 | 0.0 | 0.0 | 0.00 | 0.00 | 0.00 | 19 | 1008.2 |
| 20260502030038 | 84 | 202 | 0.0 | 0.0 | 0.00 | 0.00 | 0.00 | 19 | 1008.2 |
| 20260502025540 | 85 | 202 | 0.0 | 0.0 | 0.00 | 0.00 | 0.00 | 19 | 1008.2 |
| 20260502025300 | 85 | 202 | 0.0 | 2.0 | 0.00 | 0.00 | 0.00 | 18 | 1008.2 |
| 20260502024538 | 85 | 202 | 0.0 | 2.0 | 0.00 | 0.00 | 0.00 | 18 | 1008.1 |
| 20260502024038 | 85 | 202 | 0.0 | 2.0 | 0.00 | 0.00 | 0.00 | 18 | 1008.1 |
| 20260502023536 | 86 | 202 | 0.0 | 2.0 | 0.00 | 0.00 | 0.00 | 18 | 1008.0 |
| 20260502023035 | 86 | 202 | 1.0 | 6.0 | 0.00 | 0.00 | 0.00 | 18 | 1008.0 |
| 20260502022534 | 86 | 202 | 3.0 | 9.0 | 0.00 | 0.00 | 0.00 | 18 | 1007.8 |
| 20260502022035 | 86 | 203 | 2.0 | 9.0 | 0.00 | 0.00 | 0.00 | 17 | 1007.9 |
| 20260502021536 | 87 | 202 | 0.0 | 7.0 | 0.00 | 0.00 | 0.00 | 17 | 1007.9 |
| 20260502021036 | 87 | 202 | 2.0 | 9.0 | 0.00 | 0.00 | 0.00 | 18 | 1007.8 |
| 20260502020536 | 87 | 202 | 3.0 | 9.0 | 0.00 | 0.00 | 0.00 | 18 | 1007.7 |
| 20260502020036 | 87 | 201 | 1.0 | 8.0 | 0.00 | 0.00 | 0.00 | 17 | 1007.7 |
| 20260502015537 | 88 | 207 | 2.0 | 8.0 | 0.00 | 0.00 | 0.00 | 17 | 1007.7 |
| 20260502015037 | 88 | 206 | 2.0 | 8.0 | 0.00 | 0.00 | 0.00 | 16 | 1007.7 |
| 20260502014537 | 88 | 207 | 1.0 | 10.0 | 0.00 | 0.00 | 0.00 | 17 | 1007.7 |
| 20260502014037 | 88 | 209 | 1.0 | 10.0 | 0.00 | 0.00 | 0.00 | 17 | 1007.6 |
| 20260502013537 | 88 | 215 | 2.0 | 7.0 | 0.00 | 0.00 | 0.00 | 16 | 1007.5 |
| 20260502013036 | 89 | 215 | 3.0 | 7.0 | 0.00 | 0.00 | 0.00 | 16 | 1007.5 |
| 20260502012537 | 89 | 219 | 2.0 | 7.0 | 0.00 | 0.00 | 0.00 | 15 | 1007.5 |
| 20260502012036 | 89 | 189 | 1.0 | 6.0 | 0.00 | 0.00 | 0.00 | 16 | 1007.5 |
| 20260502011533 | 90 | 183 | 1.0 | 8.0 | 0.00 | 0.00 | 0.00 | 17 | 1007.7 |
| 20260502011254 | 90 | 218 | 1.0 | 8.0 | 0.00 | 0.00 | 0.00 | 17 | 1007.7 |
| 20260502010533 | 90 | 229 | 0.0 | 9.0 | 0.00 | 0.00 | 0.00 | 16 | 1007.7 |
| 20260502010033 | 91 | 229 | 0.0 | 9.0 | 0.00 | 0.00 | 0.00 | 16 | 1007.8 |
| 20260502005533 | 91 | 238 | 0.0 | 4.0 | 0.00 | 0.00 | 0.00 | 16 | 1007.7 |
| 20260502005035 | 91 | 242 | 1.0 | 8.0 | 0.00 | 0.00 | 0.00 | 15 | 1007.7 |
| 20260502004534 | 91 | 242 | 1.0 | 8.0 | 0.00 | 0.00 | 0.00 | 16 | 1007.8 |
| 20260502004031 | 91 | 190 | 1.0 | 6.0 | 0.00 | 0.00 | 0.00 | 16 | 1007.8 |
| 20260502003533 | 91 | 190 | 1.0 | 6.0 | 0.00 | 0.00 | 0.00 | 17 | 1007.8 |
| 20260502003032 | 91 | 190 | 0.0 | 6.0 | 0.00 | 0.00 | 0.00 | 16 | 1007.7 |
| 20260502002532 | 91 | 236 | 0.0 | 3.0 | 0.00 | 0.00 | 0.00 | 17 | 1007.8 |
| 20260502002033 | 91 | 232 | 0.0 | 0.0 | 0.00 | 0.00 | 0.00 | 17 | 1007.8 |
| 20260502001532 | 91 | 232 | 0.0 | 1.0 | 0.00 | 0.00 | 0.00 | 17 | 1007.9 |
| 20260502001033 | 91 | 232 | 0.0 | 1.0 | 0.00 | 0.00 | 0.00 | 17 | 1007.9 |
| 20260502000533 | 91 | 302 | 0.0 | 1.0 | 0.00 | 0.00 | 0.00 | 18 | 1007.8 |
| 20260502000032 | 92 | 296 | 0.0 | 10.0 | 0.00 | 0.00 | 0.00 | 17 | 1007.9 |
| 20260501235532 | 92 | 225 | 1.0 | 10.0 | 0.00 | 0.00 | 0.00 | 18 | 1008.0 |
| 20260501235032 | 91 | 231 | 1.0 | 6.0 | 0.00 | 0.00 | 0.00 | 18 | 1008.0 |
| 20260501234528 | 91 | 191 | 4.0 | 12.0 | 0.00 | 0.00 | 0.00 | 18 | 1008.0 |
| 20260501234027 | 91 | 240 | 4.0 | 12.0 | 0.00 | 0.00 | 0.00 | 18 | 1007.9 |
| 20260501233748 | 91 | 250 | 2.0 | 9.0 | 0.00 | 0.00 | 0.00 | 18 | 1007.9 |
| 20260501233026 | 91 | 164 | 2.0 | 10.0 | 0.00 | 0.00 | 0.00 | 18 | 1008.0 |
| 20260501232526 | 91 | 222 | 2.0 | 10.0 | 0.00 | 0.00 | 0.00 | 18 | 1008.1 |
| 20260501232026 | 91 | 273 | 1.0 | 7.0 | 0.00 | 0.00 | 0.00 | 19 | 1008.0 |
| 20260501231527 | 91 | 207 | 2.0 | 10.0 | 0.00 | 0.00 | 0.00 | 19 | 1008.0 |
| 20260501231027 | 91 | 219 | 2.0 | 12.0 | 0.00 | 0.00 | 0.00 | 18 | 1008.1 |
| 20260501230526 | 91 | 144 | 0.0 | 12.0 | 0.00 | 0.00 | 0.00 | 18 | 1008.1 |
| 20260501230514 | 91 | 258 | 0.0 | 0.0 | 0.00 | 0.00 | 0.00 | 19 | 1008.2 |
| 20260501225523 | 91 | 90 | 0.0 | 0.0 | 0.00 | 0.00 | 0.00 | 19 | 1008.2 |
| 20260501225023 | 91 | 89 | 0.0 | 4.0 | 0.00 | 0.00 | 0.00 | 19 | 1008.2 |
| 20260501224527 | 91 | 219 | 0.0 | 4.0 | 0.00 | 0.00 | 0.00 | 19 | 1008.4 |
| 20260501224029 | 91 | 211 | 0.0 | 1.0 | 0.00 | 0.00 | 0.00 | 19 | 1008.4 |
| 20260501223529 | 91 | 217 | 0.0 | 0.0 | 0.00 | 0.00 | 0.00 | 19 | 1008.4 |
| 20260501223026 | 91 | 241 | 0.0 | 2.0 | 0.00 | 0.00 | 0.00 | 19 | 1008.6 |
| 20260501222526 | 91 | 240 | 0.0 | 6.0 | 0.00 | 0.00 | 0.00 | 19 | 1008.7 |
| 20260501222028 | 91 | 296 | 0.0 | 6.0 | 0.00 | 0.00 | 0.00 | 19 | 1008.7 |
| 20260501221527 | 91 | 215 | 0.0 | 1.0 | 0.00 | 0.00 | 0.00 | 18 | 1008.7 |
| 20260501221027 | 90 | 64 | 0.0 | 0.0 | 0.00 | 0.00 | 0.00 | 18 | 1008.8 |
| 20260501220526 | 90 | 247 | 0.0 | 2.0 | 0.00 | 0.00 | 0.00 | 18 | 1008.9 |
| 20260501220024 | 90 | 246 | 0.0 | 9.0 | 0.00 | 0.00 | 0.00 | 17 | 1009.0 |
| 20260501215524 | 90 | 269 | 0.0 | 9.0 | 0.00 | 0.00 | 0.00 | 17 | 1009.2 |
| 20260501215024 | 90 | 281 | 0.0 | 1.0 | 0.00 | 0.00 | 0.00 | 18 | 1009.3 |
| 20260501214526 | 90 | 245 | 0.0 | 8.0 | 0.00 | 0.00 | 0.00 | 17 | 1009.2 |
| 20260501214024 | 90 | 259 | 0.0 | 8.0 | 0.00 | 0.00 | 0.00 | 17 | 1009.4 |
| 20260501213524 | 90 | 279 | 1.0 | 5.0 | 0.00 | 0.00 | 0.00 | 17 | 1009.5 |
| 20260501213025 | 90 | 232 | 3.0 | 10.0 | 0.00 | 0.00 | 0.00 | 16 | 1009.6 |
| 20260501212525 | 90 | 231 | 3.0 | 10.0 | 0.00 | 0.00 | 0.00 | 17 | 1009.8 |
| 20260501212026 | 89 | 193 | 2.0 | 9.0 | 0.00 | 0.00 | 0.00 | 17 | 1009.8 |
| 20260501211756 | 88 | 229 | 2.0 | 9.0 | 0.00 | 0.00 | 0.00 | 18 | 1009.8 |
| 20260501211022 | 88 | 244 | 3.0 | 9.0 | 0.00 | 0.00 | 0.00 | 19 | 1009.9 |
| 20260501210522 | 88 | 245 | 3.0 | 11.0 | 0.00 | 0.00 | 0.00 | 20 | 1009.9 |
| 20260501210020 | 88 | 222 | 1.0 | 11.0 | 0.00 | 0.00 | 0.00 | 21 | 1010.0 |
| 20260501205521 | 87 | 210 | 0.0 | 1.0 | 0.00 | 0.00 | 0.00 | 21 | 1010.0 |
| 20260501205020 | 88 | 275 | 0.0 | 3.0 | 0.00 | 0.00 | 0.00 | 21 | 1010.1 |
| 20260501204520 | 88 | 311 | 0.0 | 5.0 | 0.00 | 0.00 | 0.00 | 21 | 1010.1 |
| 20260501204021 | 88 | 217 | 0.0 | 5.0 | 0.00 | 0.00 | 0.00 | 21 | 1010.3 |
| 20260501203521 | 88 | 303 | 1.0 | 9.0 | 0.00 | 0.00 | 0.00 | 20 | 1010.2 |
| 20260501203021 | 88 | 243 | 2.0 | 10.0 | 0.00 | 0.00 | 0.00 | 20 | 1010.4 |
| 20260501202521 | 88 | 196 | 1.0 | 10.0 | 0.00 | 0.00 | 0.00 | 21 | 1010.5 |
| 20260501202021 | 87 | 223 | 2.0 | 9.0 | 0.00 | 0.00 | 0.00 | 21 | 1010.4 |
| 20260501202003 | 86 | 267 | 4.0 | 12.0 | 0.00 | 0.00 | 0.00 | 21 | 1010.5 |
| 20260501201020 | 87 | 287 | 2.0 | 12.0 | 0.00 | 0.00 | 0.00 | 21 | 1010.6 |
| 20260501200518 | 87 | 238 | 0.0 | 11.0 | 0.00 | 0.00 | 0.00 | 21 | 1010.6 |
| 20260501200241 | 87 | 182 | 0.0 | 8.0 | 0.00 | 0.00 | 0.00 | 22 | 1010.7 |
| 20260501195519 | 86 | 204 | 1.0 | 9.0 | 0.00 | 0.00 | 0.00 | 22 | 1010.7 |
| 20260501195020 | 87 | 158 | 1.0 | 9.0 | 0.00 | 0.00 | 0.00 | 22 | 1010.7 |
| 20260501194519 | 87 | 184 | 0.0 | 5.0 | 0.00 | 0.00 | 0.00 | 22 | 1010.7 |
| 20260501194020 | 87 | 186 | 0.0 | 4.0 | 0.00 | 0.00 | 0.00 | 22 | 1010.9 |
| 20260501193520 | 87 | 207 | 0.0 | 4.0 | 0.00 | 0.00 | 0.00 | 22 | 1011.1 |
| 20260501193020 | 86 | 197 | 1.0 | 9.0 | 0.00 | 0.00 | 0.00 | 22 | 1011.1 |
| 20260501192519 | 87 | 183 | 1.0 | 9.0 | 0.00 | 0.00 | 0.00 | 22 | 1011.2 |
| 20260501192018 | 87 | 193 | 0.0 | 1.0 | 0.00 | 0.00 | 0.00 | 23 | 1011.2 |
| 20260501191518 | 87 | 276 | 0.0 | 6.0 | 0.00 | 0.00 | 0.00 | 23 | 1011.3 |
| 20260501191238 | 86 | 215 | 1.0 | 9.0 | 0.00 | 0.00 | 0.00 | 23 | 1011.4 |
| 20260501190515 | 85 | 244 | 0.0 | 9.0 | 0.00 | 0.00 | 0.00 | 24 | 1011.5 |
| 20260501190016 | 85 | 153 | 1.0 | 11.0 | 0.00 | 0.00 | 0.00 | 24 | 1011.5 |
| 20260501185515 | 84 | 153 | 2.0 | 11.0 | 0.00 | 0.00 | 0.00 | 24 | 1011.6 |
| 20260501185017 | 85 | 169 | 3.0 | 9.0 | 0.00 | 0.00 | 0.00 | 24 | 1011.7 |
| 20260501184738 | 85 | 214 | 1.0 | 9.0 | 0.00 | 0.00 | 0.00 | 24 | 1011.6 |
| 20260501184017 | 84 | 215 | 0.0 | 2.0 | 0.00 | 0.00 | 0.00 | 25 | 1011.6 |
| 20260501183516 | 84 | 75 | 0.0 | 0.0 | 0.00 | 0.00 | 0.00 | 25 | 1011.7 |
| 20260501183014 | 83 | 75 | 1.0 | 8.0 | 0.00 | 0.00 | 0.00 | 26 | 1011.9 |
| 20260501182732 | 83 | 74 | 1.0 | 9.0 | 0.00 | 0.00 | 0.00 | 25 | 1011.9 |
| 20260501182015 | 83 | 119 | 1.0 | 10.0 | 0.00 | 0.00 | 0.00 | 25 | 1012.1 |
| 20260501181515 | 84 | 157 | 1.0 | 10.0 | 0.00 | 0.00 | 0.00 | 25 | 1012.2 |
| 20260501181015 | 84 | 160 | 0.0 | 8.0 | 0.00 | 0.00 | 0.00 | 25 | 1012.3 |
| 20260501180516 | 84 | 209 | 0.0 | 4.0 | 0.00 | 0.00 | 0.00 | 25 | 1012.3 |
| 20260501180015 | 83 | 210 | 0.0 | 4.0 | 0.00 | 0.00 | 0.00 | 26 | 1012.3 |
| 20260501175515 | 83 | 215 | 0.0 | 3.0 | 0.00 | 0.00 | 0.00 | 26 | 1012.4 |
| 20260501175015 | 83 | 224 | 0.0 | 6.0 | 0.00 | 0.00 | 0.00 | 26 | 1012.5 |
| 20260501174741 | 83 | 184 | 0.0 | 6.0 | 0.00 | 0.00 | 0.00 | 26 | 1012.5 |
| 20260501174012 | 83 | 196 | 0.0 | 2.0 | 0.00 | 0.00 | 0.00 | 26 | 1012.5 |
| 20260501173512 | 83 | 241 | 0.0 | 3.0 | 0.00 | 0.00 | 0.00 | 27 | 1012.5 |
| 20260501173013 | 83 | 219 | 0.0 | 3.0 | 0.00 | 0.00 | 0.00 | 28 | 1012.5 |
| 20260501172511 | 82 | 276 | 0.0 | 3.0 | 0.00 | 0.00 | 0.00 | 28 | 1012.5 |
| 20260501172013 | 82 | 256 | 2.0 | 9.0 | 0.00 | 0.00 | 0.00 | 29 | 1012.6 |
| 20260501171512 | 81 | 257 | 2.0 | 9.0 | 0.00 | 0.00 | 0.00 | 29 | 1012.6 |
| 20260501171013 | 81 | 169 | 0.0 | 5.0 | 0.00 | 0.00 | 0.00 | 29 | 1012.7 |
| 20260501170513 | 81 | 134 | 0.0 | 1.0 | 0.00 | 0.00 | 0.00 | 30 | 1012.7 |
| 20260501170014 | 80 | 19 | 0.0 | 6.0 | 0.00 | 0.00 | 0.00 | 30 | 1012.7 |
| 20260501165512 | 80 | 165 | 0.0 | 6.0 | 0.00 | 0.00 | 0.00 | 31 | 1012.7 |
| 20260501165010 | 80 | 200 | 0.0 | 8.0 | 0.00 | 0.00 | 0.00 | 31 | 1012.6 |
| 20260501164510 | 80 | 129 | 0.0 | 8.0 | 0.00 | 0.00 | 0.00 | 31 | 1012.5 |
| 20260501164009 | 80 | 230 | 3.0 | 9.0 | 0.00 | 0.00 | 0.00 | 31 | 1012.6 |
| 20260501163509 | 79 | 236 | 3.0 | 9.0 | 0.00 | 0.00 | 0.00 | 31 | 1012.6 |
| 20260501163011 | 79 | 224 | 1.0 | 9.0 | 0.00 | 0.00 | 0.00 | 31 | 1012.5 |
| 20260501162511 | 79 | 202 | 1.0 | 4.0 | 0.00 | 0.00 | 0.00 | 31 | 1012.6 |
| 20260501162012 | 79 | 217 | 1.0 | 6.0 | 0.00 | 0.00 | 0.00 | 31 | 1012.7 |
| 20260501161513 | 79 | 180 | 2.0 | 6.0 | 0.00 | 0.00 | 0.00 | 31 | 1012.7 |
| 20260501161012 | 79 | 186 | 1.0 | 7.0 | 0.00 | 0.00 | 0.00 | 32 | 1012.7 |
| 20260501160512 | 79 | 185 | 2.0 | 7.0 | 0.00 | 0.00 | 0.00 | 32 | 1012.6 |
| 20260501160014 | 79 | 176 | 2.0 | 7.0 | 0.00 | 0.00 | 0.00 | 32 | 1012.5 |
| 20260501155512 | 78 | 167 | 1.0 | 7.0 | 0.00 | 0.00 | 0.00 | 32 | 1012.4 |
| 20260501155011 | 78 | 158 | 0.0 | 3.0 | 0.00 | 0.00 | 0.00 | 32 | 1012.4 |
| 20260501154508 | 78 | 212 | 0.0 | 1.0 | 0.00 | 0.00 | 0.00 | 33 | 1012.4 |
| 20260501154230 | 78 | 206 | 0.0 | 0.0 | 0.00 | 0.00 | 0.00 | 32 | 1012.2 |
| 20260501153509 | 78 | 192 | 0.0 | 3.0 | 0.00 | 0.00 | 0.00 | 33 | 1012.2 |
| 20260501153006 | 78 | 215 | 0.0 | 3.0 | 0.00 | 0.00 | 0.00 | 32 | 1012.2 |
| 20260501152506 | 78 | 192 | 0.0 | 1.0 | 0.00 | 0.00 | 0.00 | 33 | 1012.2 |
| 20260501152007 | 78 | 194 | 0.0 | 0.0 | 0.00 | 0.00 | 0.00 | 33 | 1012.2 |
| 20260501151506 | 77 | 194 | 0.0 | 0.0 | 0.00 | 0.00 | 0.00 | 34 | 1012.1 |
| 20260501151228 | 77 | 194 | 0.0 | 0.0 | 0.00 | 0.00 | 0.00 | 34 | 1011.9 |
| 20260501150505 | 76 | 194 | 0.0 | 0.0 | 0.00 | 0.00 | 0.00 | 35 | 1011.8 |
| 20260501150007 | 76 | 194 | 0.0 | 0.0 | 0.00 | 0.00 | 0.00 | 35 | 1011.8 |
| 20260501145506 | 75 | 194 | 0.0 | 1.0 | 0.00 | 0.00 | 0.00 | 36 | 1011.8 |
| 20260501145225 | 74 | 194 | 0.0 | 1.0 | 0.00 | 0.00 | 0.00 | 36 | 1011.7 |
| 20260501144503 | 74 | 194 | 0.0 | 0.0 | 0.00 | 0.00 | 0.00 | 37 | 1011.7 |
| 20260501144003 | 74 | 194 | 0.0 | 0.0 | 0.00 | 0.00 | 0.00 | 37 | 1011.7 |
| 20260501143504 | 73 | 194 | 0.0 | 0.0 | 0.00 | 0.00 | 0.00 | 38 | 1011.6 |
| 20260501143003 | 73 | 194 | 0.0 | 0.0 | 0.00 | 0.00 | 0.00 | 38 | 1011.5 |